Flag for Mauritania Weather past 2 weeks in Nouakchott, Mauritania

Now
72 °F

Clear.


Feels Like: 76 °F
Forecast: N/A
Wind: 7 mph from Northwest

Location: Nouakchott Airport

Current Time: Mar 6, 2015 at 10:45:28 PM

Latest Report: Mar 6, 2015 at 10:00 PM


Visibility: 4 mi

Pressure: 29.89 "Hg

Humidity: 61%

Dew point: 57 °F

Location of NouakchottLocation

Historic Weather in Nouakchott — Graph

°F

Nouakchott temperature yesterday

Maximum temperature yesterday: 97 °F (at 2:00 PM)
Minimum temperature yesterday: 63 °F (at 7:30 AM)
Average temperature yesterday: 76 °F

Past Weeks' High & Low Weather Summary

 TemperatureHumidityPressure
High97 °F (Mar 5, 2:00 PM)83% (Feb 23, 1:30 AM)30.12 "Hg (Feb 23, 1:30 AM)
Low55 °F (Mar 1, 7:00 AM)5% (Feb 25, 3:00 PM)29.80 "Hg (Mar 4, 4:00 PM)
Average75 °F26%29.96 "Hg
* Reported Feb 19 9:00 PM — Mar 6 9:30 PM, Nouakchott, Weather by CustomWeather, © 2015

Note: Actual official high and low records may vary slightly from our data, if they occured in-between our weather recording intervals... More about our weather records

Advertising

Nouakchott weather history for previous 24 hours

 ConditionsComfort  
Time TempWeatherWind HumidityBarometerVisibility
9:30 PM
Fri, Mar 6
72 °FClear.8 mph61%29.86 "Hg4 mi
9:00 PM73 °FClear.8 mph53%29.86 "Hg4 mi
8:30 PM73 °FClear.7 mph53%29.83 "Hg4 mi
8:00 PM73 °FClear.7 mph53%29.83 "Hg4 mi
7:30 PM75 °FClear.7 mph44%29.83 "Hg4 mi
7:00 PM77 °FDuststorm.8 mph42%29.80 "Hg4 mi
6:30 PM79 °FDuststorm.7 mph34%29.80 "Hg4 mi
6:00 PM81 °FDuststorm.9 mph32%29.80 "Hg4 mi
5:30 PM82 °FDuststorm.9 mph30%29.80 "Hg4 mi
5:00 PM82 °FLow level haze.9 mph32%29.80 "Hg3 mi
4:30 PM82 °FLow level haze.9 mph35%29.80 "Hg3 mi
4:00 PM84 °FLow level haze.10 mph31%29.80 "Hg2 mi
3:30 PM86 °FLow level haze.9 mph31%29.80 "Hg2 mi
3:00 PM86 °FLow level haze.10 mph33%29.80 "Hg2 mi
2:30 PM90 °FLow level haze.10 mph26%29.80 "Hg2 mi
2:00 PM97 °FLow level haze.12 mph6%29.83 "Hg2 mi
1:30 PM95 °FLow level haze.13 mph7%29.83 "Hg2 mi
1:00 PM93 °FLow level haze.10 mph8%29.86 "Hg2 mi
12:30 PM91 °FClear.8 mph9%29.86 "Hg4 mi
12:00 PM90 °FClear.7 mph11%29.89 "Hg4 mi
11:30 AM86 °FClear.2 mph17%29.89 "Hg4 mi
11:00 AM82 °FClear.3 mph25%29.92 "Hg4 mi
10:30 AM79 °FClear.7 mph28%29.92 "Hg4 mi
10:00 AM77 °FClear.5 mph34%29.92 "Hg4 mi
9:30 AM72 °FClear.5 mph53%29.92 "Hg4 mi
9:00 AM70 °FClear.5 mph60%29.92 "Hg4 mi
8:30 AM68 °FClear.3 mph64%29.89 "Hg4 mi
8:00 AM66 °FClear.2 mph64%29.89 "Hg4 mi
7:30 AM64 °FClear.3 mph68%29.89 "Hg5 mi
7:00 AM64 °FClear.5 mph68%29.89 "Hg5 mi
6:30 AM64 °FClear.3 mph68%29.86 "Hg5 mi
6:00 AM66 °FClear.5 mph60%29.86 "Hg5 mi
5:30 AM64 °FClear.3 mph64%29.86 "Hg5 mi
5:00 AM64 °FClear.3 mph60%29.86 "Hg5 mi
4:30 AM64 °FClear.1 mph60%29.86 "Hg5 mi
4:00 AM64 °FClear.2 mph60%29.86 "Hg5 mi
3:30 AM66 °FClear.5 mph60%29.86 "Hg5 mi
3:00 AM68 °FClear.6 mph56%29.86 "Hg5 mi
2:30 AM68 °FClear.7 mph56%29.86 "Hg5 mi
2:00 AM68 °FClear.7 mph56%29.86 "Hg5 mi
1:30 AM68 °FClear.6 mph60%29.89 "Hg5 mi
1:00 AM68 °FClear.7 mph60%29.89 "Hg5 mi
12:30 AM68 °FClear.8 mph60%29.89 "Hg5 mi
12:00 AM68 °FClear.7 mph60%29.89 "Hg5 mi
11:30 PM
Thu, Mar 5
70 °FClear.8 mph57%29.89 "Hg5 mi
11:00 PM70 °FClear.8 mph57%29.89 "Hg5 mi
10:30 PM70 °FClear.6 mph57%29.89 "Hg5 mi
10:00 PM70 °FClear.6 mph57%29.89 "Hg4 mi
Weather by CustomWeather, © 2015

See weather overviewHow to use our weather pages